FW3005 Weather Reports


time (UTC)temp
F
wind
direction
speed
knots
gust
knots
rain 1hr
in
rain 24hr
in
rain mn
in
humidity
%
barometer
mb
20260507034549 45 297 0.0 0.9 0.00 0.00 0.00 58 1016.2
20260507033049 46 316 0.0 1.7 0.00 0.00 0.00 55 1016.3
20260507031548 47 278 0.0 3.5 0.00 0.00 0.00 52 1016.2
20260507030047 48 313 0.0 4.3 0.00 0.00 0.00 51 1016.1
20260507024546 48 278 1.7 4.3 0.00 0.00 0.00 50 1016.1
20260507023045 49 278 1.7 6.1 0.00 0.00 0.00 49 1015.8
20260507021544 49 281 1.7 7.0 0.00 0.00 0.00 48 1015.6
20260507020044 49 282 0.9 7.0 0.00 0.00 0.00 48 1015.4
20260507014548 50 4 4.3 9.6 0.00 0.00 0.00 48 1015.2
20260507013049 50 287 0.9 8.7 0.00 0.00 0.00 48 1015.1
20260507011538 51 297 3.5 8.7 0.00 0.00 0.00 46 1015.1
20260507010050 52 224 4.3 9.6 0.00 0.00 0.00 46 1014.9
20260507004535 52 299 5.2 9.6 0.00 0.00 0.00 45 1014.7
20260507003036 53 314 2.6 7.8 0.00 0.00 0.00 45 1014.6
20260507001535 53 317 4.3 14.8 0.00 0.00 0.00 44 1014.5
20260507000034 54 321 3.5 10.4 0.00 0.00 0.00 43 1014.2
20260506234536 55 252 3.5 8.7 0.00 0.00 0.00 43 1014.0
20260506233052 55 284 5.2 11.3 0.00 0.00 0.00 44 1014.0
20260506231536 55 264 4.3 11.3 0.00 0.00 0.00 43 1013.9
20260506230031 56 114 3.5 8.7 0.00 0.00 0.00 43 1013.8
20260506224531 55 311 3.5 15.6 0.00 0.00 0.00 42 1013.8
20260506223030 56 226 5.2 11.3 0.00 0.00 0.00 40 1013.7
20260506221532 56 319 6.1 13.9 0.00 0.00 0.00 40 1013.7
20260506220030 58 271 2.6 12.2 0.00 0.00 0.00 42 1013.6
20260506214529 58 297 4.3 13.0 0.00 0.00 0.00 40 1013.5
20260506213028 58 317 1.7 8.7 0.00 0.00 0.00 41 1013.4
20260506211529 58 298 1.7 8.7 0.00 0.00 0.00 41 1013.3
20260506210033 56 284 2.6 7.8 0.00 0.00 0.00 44 1013.6
20260506204526 56 295 2.6 13.0 0.00 0.00 0.00 45 1013.6
20260506203025 57 261 1.7 7.8 0.00 0.00 0.00 46 1013.9
20260506201530 56 258 2.6 8.7 0.00 0.00 0.00 46 1014.0
20260506200036 55 234 0.9 10.4 0.00 0.00 0.00 46 1014.3
20260506194524 55 272 4.3 12.2 0.00 0.00 0.00 45 1014.4
20260506193027 56 249 1.7 11.3 0.00 0.00 0.00 46 1014.4
20260506191523 56 310 0.9 8.7 0.00 0.00 0.00 44 1014.4
20260506190024 58 252 1.7 5.2 0.00 0.00 0.00 43 1014.3
20260506184520 57 204 3.5 7.8 0.00 0.00 0.00 41 1014.3
20260506183019 56 299 3.5 9.6 0.00 0.00 0.00 41 1014.3
20260506181521 56 268 1.7 7.8 0.00 0.00 0.00 44 1014.3
20260506180020 56 294 1.7 9.6 0.00 0.00 0.00 43 1014.4
20260506174518 57 285 2.6 12.2 0.00 0.00 0.00 42 1014.5
20260506173021 56 263 2.6 6.1 0.00 0.00 0.00 39 1014.6
20260506171516 56 225 3.5 7.8 0.00 0.00 0.00 39 1014.6
20260506170013 55 294 3.5 9.6 0.00 0.00 0.00 41 1014.5
20260506164515 55 269 2.6 10.4 0.00 0.00 0.00 42 1014.5
20260506163013 55 274 0.9 6.1 0.00 0.00 0.00 43 1014.4
20260506161510 54 245 3.5 9.6 0.00 0.00 0.00 42 1014.4
20260506160014 54 330 2.6 7.0 0.00 0.00 0.00 44 1014.5
20260506154508 54 285 1.7 5.2 0.00 0.00 0.00 44 1014.5
20260506153005 53 155 0.0 4.3 0.00 0.00 0.00 48 1014.6
20260506151507 53 319 0.0 3.5 0.00 0.00 0.00 47 1014.7
20260506150003 53 283 0.9 4.3 0.00 0.00 0.00 49 1014.7
20260506144600 52 77 0.0 1.7 0.00 0.00 0.00 50 1014.7
20260506143059 52 146 0.0 0.9 0.00 0.00 0.00 51 1014.7
20260506141610 50 121 0.0 1.7 0.00 0.00 0.00 53 1014.8
20260506140054 50 96 0.0 2.6 0.00 0.00 0.00 53 1014.7
20260506134551 49 89 0.9 2.6 0.00 0.05 0.00 55 1014.6
20260506133049 49 15 0.0 5.2 0.00 0.05 0.00 56 1014.1
20260506131547 49 112 0.9 3.5 0.00 0.05 0.00 57 1013.8
20260506130045 48 334 0.0 1.7 0.00 0.05 0.00 59 1013.7
20260506124544 47 14 0.0 1.7 0.00 0.07 0.00 63 1013.3
20260506123045 46 340 0.0 0.9 0.00 0.07 0.00 67 1013.4
20260506121543 45 89 0.0 0.0 0.00 0.07 0.00 70 1013.2
20260506120105 45 89 0.0 0.9 0.00 0.07 0.00 71 1013.1
20260506114537 44 89 0.0 0.0 0.00 0.07 0.00 70 1013.0
20260506113035 43 89 0.0 0.0 0.00 0.07 0.00 70 1012.9
20260506111533 43 89 0.0 0.0 0.00 0.07 0.00 69 1012.7
20260506110031 42 89 0.0 0.0 0.00 0.07 0.00 72 1012.4
20260506104530 41 89 0.0 0.0 0.00 0.07 0.00 72 1012.3
20260506103030 43 89 0.0 0.0 0.00 0.07 0.00 68 1011.9
20260506101523 44 89 0.0 0.9 0.00 0.07 0.00 67 1011.7
20260506100023 44 72 0.0 1.7 0.00 0.07 0.00 66 1011.8
20260506094530 44 93 0.0 0.9 0.00 0.07 0.00 67 1011.8
20260506093029 44 95 0.0 0.9 0.00 0.07 0.00 67 1011.8
20260506091516 45 91 0.0 0.9 0.00 0.07 0.00 65 1011.8
20260506090015 45 13 0.0 1.7 0.00 0.07 0.00 64 1011.8
20260506084514 45 44 0.0 3.5 0.00 0.07 0.00 64 1011.8
20260506083012 45 77 0.0 0.9 0.00 0.07 0.00 64 1011.6
20260506081509 46 11 0.0 3.5 0.00 0.07 0.00 62 1011.6
20260506073104 48 301 1.7 8.7 0.00 0.07 0.00 59 1010.6
20260506071558 49 17 3.5 10.4 0.00 0.07 0.00 59 1010.5
20260506070115 48 11 3.5 8.7 0.00 0.07 0.00 61 1010.5
20260506061549 50 19 0.0 2.6 0.00 0.07 0.00 62 1010.5
20260506044550 51 276 0.0 0.0 0.00 0.07 0.07 63 1009.9
20260506043037 51 276 0.0 1.7 0.00 0.07 0.07 60 1010.0
20260506041546 51 285 0.0 0.9 0.00 0.07 0.07 60 1010.2
20260506040041 51 273 0.0 0.9 0.00 0.07 0.07 61 1010.4